| time (UTC) | temp F | wind direction | speed MPH | gust MPH | rain 1hr in | rain 24hr in | rain mn in | humidity % | barometer mb |
| 20260504201921 | 73 | 355 | 4.0 | 13.0 | 0.00 | 0.00 | 0.00 | 34 | 1009.3 |
| 20260504200749 | 72 | 0 | 3.0 | 16.0 | 0.00 | 0.00 | 0.00 | 34 | 1009.4 |
| 20260504195620 | 72 | 5 | 7.0 | 16.0 | 0.00 | 0.00 | 0.00 | 35 | 1009.4 |
| 20260504194441 | 71 | 348 | 6.0 | 12.0 | 0.00 | 0.00 | 0.00 | 35 | 1009.4 |
| 20260504191910 | 71 | 5 | 2.0 | 12.0 | 0.00 | 0.00 | 0.00 | 36 | 1009.6 |
| 20260504185431 | 70 | 9 | 4.0 | 14.0 | 0.00 | 0.00 | 0.00 | 38 | 1009.7 |
| 20260504184223 | 70 | 5 | 4.0 | 14.0 | 0.00 | 0.00 | 0.00 | 39 | 1009.8 |
| 20260504183017 | 70 | 351 | 2.0 | 13.0 | 0.00 | 0.00 | 0.00 | 39 | 1010.0 |
| 20260504181748 | 69 | 15 | 3.0 | 13.0 | 0.00 | 0.00 | 0.00 | 38 | 1010.0 |
| 20260504180608 | 68 | 13 | 5.0 | 13.0 | 0.00 | 0.00 | 0.00 | 40 | 1010.0 |
| 20260504175429 | 68 | 19 | 4.0 | 13.0 | 0.00 | 0.00 | 0.00 | 41 | 1010.0 |
| 20260504174154 | 68 | 19 | 4.0 | 13.0 | 0.00 | 0.00 | 0.00 | 41 | 1009.9 |
| 20260504171649 | 66 | 29 | 4.0 | 14.0 | 0.00 | 0.00 | 0.00 | 42 | 1010.1 |
| 20260504170456 | 65 | 5 | 2.0 | 15.0 | 0.00 | 0.00 | 0.00 | 44 | 1010.1 |
| 20260504160318 | 61 | 39 | 4.0 | 15.0 | 0.00 | 0.00 | 0.00 | 52 | 1010.2 |
| 20260504150247 | 57 | 132 | 0.0 | 0.0 | 0.00 | 0.00 | 0.00 | 62 | 1010.4 |
| 20260504141327 | 52 | 123 | 0.0 | 0.0 | 0.00 | 0.00 | 0.00 | 77 | 1010.3 |
| 20260504140157 | 51 | 118 | 0.0 | 0.0 | 0.00 | 0.00 | 0.00 | 77 | 1010.2 |
| 20260504130106 | 49 | 112 | 0.0 | 0.0 | 0.00 | 0.00 | 0.00 | 80 | 1009.7 |
| 20260504044744 | 64 | 146 | 0.0 | 0.0 | 0.00 | 0.00 | 0.00 | 47 | 1009.5 |
| 20260504043530 | 65 | 144 | 0.0 | 6.0 | 0.00 | 0.00 | 0.00 | 45 | 1009.5 |
| 20260504042341 | 66 | 136 | 0.0 | 5.0 | 0.00 | 0.00 | 0.00 | 43 | 1009.4 |
| 20260504041145 | 67 | 142 | 0.0 | 5.0 | 0.00 | 0.00 | 0.00 | 39 | 1009.4 |
| 20260504035919 | 68 | 121 | 0.0 | 0.0 | 0.00 | 0.00 | 0.00 | 38 | 1009.4 |
| 20260504034651 | 69 | 132 | 0.0 | 0.0 | 0.00 | 0.00 | 0.00 | 34 | 1009.3 |
| 20260504033511 | 70 | 132 | 0.0 | 0.0 | 0.00 | 0.00 | 0.00 | 32 | 1009.2 |
| 20260504032319 | 71 | 140 | 0.0 | 0.0 | 0.00 | 0.00 | 0.00 | 30 | 1009.1 |
| 20260504031142 | 72 | 252 | 0.0 | 0.0 | 0.00 | 0.00 | 0.00 | 32 | 1009.0 |
| 20260504025908 | 73 | 252 | 0.0 | 0.0 | 0.00 | 0.00 | 0.00 | 33 | 1009.0 |
| 20260504024641 | 75 | 252 | 0.0 | 0.0 | 0.00 | 0.00 | 0.00 | 29 | 1009.0 |
| 20260504023404 | 76 | 250 | 0.0 | 0.0 | 0.00 | 0.00 | 0.00 | 28 | 1009.0 |
| 20260504022128 | 76 | 263 | 0.0 | 0.0 | 0.00 | 0.00 | 0.00 | 27 | 1009.1 |
| 20260504020905 | 77 | 260 | 0.0 | 0.0 | 0.00 | 0.00 | 0.00 | 26 | 1009.2 |
| 20260504015625 | 77 | 279 | 0.0 | 0.0 | 0.00 | 0.00 | 0.00 | 25 | 1009.3 |
| 20260504014433 | 78 | 281 | 0.0 | 0.0 | 0.00 | 0.00 | 0.00 | 25 | 1009.4 |
| 20260504011859 | 78 | 267 | 0.0 | 0.0 | 0.00 | 0.00 | 0.00 | 25 | 1009.5 |
| 20260504005311 | 77 | 224 | 0.0 | 0.0 | 0.00 | 0.00 | 0.00 | 24 | 1009.7 |
| 20260504004053 | 77 | 237 | 0.0 | 0.0 | 0.00 | 0.00 | 0.00 | 24 | 1009.9 |
| 20260504002903 | 77 | 236 | 1.0 | 0.0 | 0.00 | 0.00 | 0.00 | 22 | 1010.0 |
| 20260504001719 | 77 | 199 | 1.0 | 10.0 | 0.00 | 0.00 | 0.00 | 24 | 1010.1 |
| 20260504000532 | 77 | 215 | 1.0 | 3.0 | 0.00 | 0.00 | 0.00 | 22 | 1010.2 |
| 20260503235253 | 77 | 214 | 0.0 | 10.0 | 0.00 | 0.00 | 0.00 | 22 | 1010.4 |
| 20260503234016 | 76 | 229 | 1.0 | 9.0 | 0.00 | 0.00 | 0.00 | 21 | 1010.5 |
| 20260503232758 | 76 | 213 | 0.0 | 7.0 | 0.00 | 0.00 | 0.00 | 24 | 1010.6 |
| 20260503231618 | 76 | 244 | 0.0 | 0.0 | 0.00 | 0.00 | 0.00 | 23 | 1010.9 |
| 20260503230436 | 76 | 203 | 0.0 | 9.0 | 0.00 | 0.00 | 0.00 | 24 | 1011.0 |
| 20260503223924 | 76 | 305 | 0.0 | 0.0 | 0.00 | 0.00 | 0.00 | 23 | 1011.4 |
| 20260503222722 | 76 | 257 | 0.0 | 3.0 | 0.00 | 0.00 | 0.00 | 23 | 1011.6 |
| 20260503221532 | 75 | 273 | 0.0 | 0.0 | 0.00 | 0.00 | 0.00 | 25 | 1011.6 |
| 20260503220317 | 75 | 216 | 1.0 | 11.0 | 0.00 | 0.00 | 0.00 | 25 | 1011.8 |
| 20260503215049 | 75 | 163 | 0.0 | 7.0 | 0.00 | 0.00 | 0.00 | 24 | 1012.1 |
| 20260503212537 | 74 | 140 | 0.0 | 0.0 | 0.00 | 0.00 | 0.00 | 28 | 1012.4 |
| 20260503211400 | 74 | 229 | 0.0 | 9.0 | 0.00 | 0.00 | 0.00 | 28 | 1012.6 |
| 20260503204808 | 73 | 242 | 0.0 | 0.0 | 0.00 | 0.00 | 0.00 | 33 | 1013.1 |
| 20260503203608 | 73 | 318 | 0.0 | 3.0 | 0.00 | 0.00 | 0.00 | 32 | 1013.2 |